Location: Sternwarte ZA, Rosenfeld-Brittheim
(48.2889°N, 8.6789°E)
Time: 17:30:04
(UTC+02:00)

ISS - Pass Details

Date: 23 May 2020
Orbit: 417 x 420 km, 51.6° (Epoch: 26 May)

Event Time Altitude Azimuth Distance (km) Brightness Sun altitude
Rises 00:42:13 0° 292° (WNW) 2,369 0.5 -20.5°
Reaches altitude 10° 00:44:19 10° 292° (WNW) 1,504 -0.6 -20.6°
Enters shadow 00:47:18 67° 290° (WNW) 460 -3.6 -20.7°
